www.pogodaiklimat.ru

Погода и климат >> Архив погоды >> Мексика >> Пачука


ПОГОДА в Пачуке

  • Прогноз погоды в Пачуке
  • Монитор погоды в Пачуке

АРХИВ ПОГОДЫ в Пачуке

Время (UTC), дата Ветер
(напр.,м/с)
 
Видим.   Явления Облачность Т
(С)
Тd
(С)
f
(%)
Тe
(С)
Тes
(С)
Комфортность P
(гПа)
Po
(гПа)
Тmin
(С)
Tmax
(С)
R
(мм)
R24
(мм)
S
(см)
15 20.05 СЗ 2 6000 м мгла 4/1 1350 м
[Cu Sc Ac trans]
+20.4 +9.7 50 +22 +29 комфорт 1011.7 770.9
18 20.05 С 3 6000 м мгла 3/3 1500 м
[Cu Sc]
+26.6 +10.4 36 +27 +40 жарко 1010.2 770.8 +27.2
21 20.05 СЗ 4 6000 м мгла 3/3 1500 м
[Cu Sc]
+28.8 +11.3 34 +29 +37 жарко 1003.5 767.9
00 21.05 С 8 6000 м мгла 3/3 1500 м
[Cu Sc]
+25.0 +11.5 43 +26 +27 жарко 999.5 767.0 +12.0 +30.0
03 21.05 С 2 4000 м мгла 4/0
[As op]
+19.4 +9.9 54 +21 +21 комфорт 1001.4 769.1
06 21.05 СЗ 1 4000 м мгла 4/0
[As op]
+16.8 +8.8 59 +18 +18 1003.5 769.5 +12.0 +30.0
09 21.05 С 1 4000 м мгла 4/0
[As op]
+14.4 +6.4 59 +15 +15 1004.8 768.3
12 21.05 СЗ 1 5000 м мгла ясно +12.7 +6.9 68 +13 +13 1008.0 768.4 +12.5 +30.0
15 21.05 СЗ 2 6000 м мгла 3/0
[Cs]
+20.8 +9.1 47 +23 +32 комфорт 1009.2 768.7
18 21.05 С 8 6000 м мгла 3/0
[Cs]
+26.6 +6.1 27 +26 +30 жарко 1006.0 767.5 +12.5 +27.5
21 21.05 С 7 6000 м мгла 3/3 1500 м
[Cu med, cong]
+29.5 +13.5 37 +31 +34 жарко 1000.7 765.8
00 22.05 СЗ 8 6000 м мгла 4/4 1500 м
[Cu med, cong]
+25.2 +15.8 56 +28 +29 жарко 997.1 765.3 +12.5 +31.0
03 22.05 С 3 4000 м мгла 5/5 1440 м
[Sc]
+21.0 +7.0 40 +22 +22 комфорт 999.8 768.1
06 22.05 СЗ 1 4000 м мгла 4/4 1500 м
[Sc]
+16.6 +10.3 66 +18 +18 1003.8 770.4 +12.5 +31.0
09 22.05 С 1 4000 м мгла 5/0
[Ac trans]
+14.3 +9.7 74 +15 +15 1004.5 768.4
12 22.05 С 1 5000 м мгла 3/0
[As trans]
+12.3 +8.9 80 +12 +12 1007.5 768.2 +12.1 +31.0
15 22.05 СЗ 1 6000 м дым туман 1/0
[Ac trans]
+21.2 +9.2 46 +22 +33 комфорт 1009.1 768.7
18 22.05 С 4 6000 м мгла 3/3 2000 м
[Cu Sc]
+28.8 +9.8 31 +29 +39 жарко 1007.0 768.5 +12.1 +29.2
21 22.05 СЗ 7 6000 м мгла 3/3 2000 м
[Cu Sc]
+28.8 +11.7 35 +30 +33 жарко 1001.9 767.0
00 23.05 СЗ 8 5000 м мгла 5/0
[As op]
+24.0 +14.8 56 +27 +27 жарко 998.4 766.6 +12.1 +30.5
03 23.05 С 7 4000 м мгла 4/0
[As trans]
+19.8 +9.7 52 +21 +21 комфорт 1000.8 769.0
06 23.05 СВ 2 4000 м мгла ясно +17.5 +7.8 53 +18 +18 1004.2 770.3 +30.5
09 23.05 ЮВ 1 4000 м мгла ясно +13.0 +5.8 62 +13 +13 1006.3 769.4
12 23.05 ЮЗ 1 5000 м мгла ясно +11.2 +5.0 66 +11 +11 1009.7 769.5 +11.0 +30.5
15 23.05 С 1 6000 м мгла 4/0
[Cs]
+20.4 +0.9 27 +22 +32 комфорт 1011.9 770.9
18 23.05 СЗ 5 6000 м мгла 1/1 2000 м
[Cu Sc]
+26.6 +6.0 27 +26 +36 жарко 1009.2 769.4 +10.8 +28.2
21 23.05 СЗ 7 6000 м мгла 4/4 1500 м
[Cu med, cong]
+25.5 +14.0 49 +28 +30 жарко 1004.5 767.9
00 24.05 С 9 6000 м мгла 4/4 1500 м
[Cu med, cong]
+21.0 +16.3 75 +24 +24 комфорт 1001.6 767.6 +10.8 +28.0
03 24.05 СЗ 9 4000 м мгла ясно +17.0 +12.2 73 +16 +16 1004.6 770.1
06 24.05 ЮЗ 2 4000 м мгла ясно +16.2 +10.4 68 +16 +16 1007.8 771.2 +28.0
09 24.05 В 1 4000 м мгла ясно +14.2 +11.1 82 +15 +15 1008.4 769.6
12 24.05 ЮВ 1 5000 м мгла ясно +12.6 +10.4 86 +13 +13 1010.9 769.8 +12.4 +28.0
15 24.05 СЗ 2 6000 м мгла 4/4 1080 м
[Cu med, cong]
+18.8 +10.3 58 +20 +25 1012.8 771.0
18 24.05 СЗ 7 6000 м мгла 5/5 1500 м
[Cu med, cong]
+23.6 +10.8 44 +25 +28 комфорт 1010.8 770.6 +12.4 +25.0
21 24.05 СЗ 7 6000 м мгла 5/5 1500 м
[Cu med, cong]
+25.4 +14.2 50 +28 +30 жарко 1006.1 768.7
00 25.05 С 9 6000 м мгла 4/4 1500 м
[Cu med, cong]
+20.0 +15.5 75 +22 +22 комфорт 1004.1 768.2 +12.4 +27.0
03 25.05 С 3 4000 м мгла 4/0
[As op]
+16.8 +11.0 69 +17 +17 1006.5 770.8
06 25.05 С 1 4000 м мгла 4/0
[As op]
+15.2 +11.2 77 +16 +16 1006.9 771.1 +12.4 +27.0
09 25.05 СЗ 1 4000 м мгла 4/0
[As op]
+14.0 +11.2 83 +14 +14 1008.5 769.4
12 25.05 СЗ 1 5000 м мгла 5/0
[As op]
+12.0 +9.6 85 +12 +12 1012.1 770.5 +11.8 +27.0
15 25.05 СЗ 1 6000 м мгла 1/1 1500 м
[Cu hum]
+18.8 +12.4 66 +21 +30 комфорт 1014.3 771.7
18 25.05 СЗ 5 6000 м мгла 4/4 1500 м
[Sc diur, vesp]
+24.2 +13.9 53 +27 +34 жарко 1011.6 770.9 +11.8 +25.0
21 25.05 С 9 6000 м мгла 4/4 1500 м
[Sc diur, vesp]
+24.8 +15.3 56 +28 +29 жарко 1007.7 769.7
00 26.05 С 9 6000 м мгла 3/3 1500 м
[Cu med, cong]
+20.0 +14.5 71 +22 +22 комфорт 1005.1 769.3 +11.8 +26.0
12 26.05 штиль 0 6000 м мгла 3/0
[As trans]
+13.8 +10.7 82 +13 +13 1011.6 771.0 +13.6 +26.0
15 26.05 СЗ 2 6000 м мгла 3/3 960 м
[Cu Sc]
+18.4 +10.8 61 +19 +26 1014.0 772.2
18 26.05 С 5 6000 м мгла 5/5 1500 м
[Cu med, cong]
+23.0 +10.4 45 +25 +31 комфорт 1011.9 771.6 +12.5 +24.4
21 26.05 С 9 6000 м мгла 4/4 2000 м
[Cu med, cong]
+25.8 +9.1 35 +26 +27 жарко 1007.7 770.1
00 27.05 С 11 6000 м пыльный позёмок туман 1/1 1320 м
[Cu Sc]
+21.0 +10.4 51 +22 +22 комфорт 1004.6 769.2 +12.5 +26.4
12 27.05 штиль 0 6000 м мгла 5/0
[Cs]
+11.4 +7.8 79 +11 +11 1011.7 770.5 +11.2 +26.4

 

Местоположение метеостанции Пачука (Мексика): широта 20.13 долгота -98.75 высота над уровнем моря 2435 м.

В архиве по умолчанию представлена погода в Пачуке за последнюю неделю. Архивные данные за месяц целиком и за предыдущие месяцы, начиная с января 2011 года, Вы можете получить, выбрав интересующий диапазон дат из раскрывающегося списка и нажав кнопку "Ввод!".


*Определитесь, кто Вы:
робот инопланетянин человек

Внимание! Время в таблицах - всемирное. Для получения местного времени необходимо прибавить поправку, которая равна -6 ч.

Смотрите также архив погоды в соседних городах и на ближайших метеорологических станциях:

Погода в Тулансинго (Мексика) (40 км)
Погода в Мехико (Мексика) (93 км)
Погода в Институте Географии (Мексика) (101 км)
Погода в Тлашкале (Мексика) (104 км)
Погода в Тлашкала аэропорту (Мексика) (106 км)
Погода в Маталапе (Мексика) (133 км)
Погода в Пуэбле (Мексика) (135 км)
Погода в Толуке (Мексика) (136 км)
Погода в Куэрнаваке (Мексика) (148 км)
Погода в Сакатепеке (Мексика) (165 км)

Пояснения к столбцам:

Ветер - указаны скорость ветра в м/с - средняя за 10 мин, порывы в срок и между сроками (в фигурных скобках) и направление, откуда дует ветер: С - северный, СВ - северо-восточный, В - восточный, ЮВ - юго-восточный, Ю - южный, ЮЗ - юго-западный, З - западный, СЗ - северо-западный.
Видимость - горизонтальная дальность видимости в метрах или километрах. При видимости от 1 до 10 км при отсутствии осадков обычно наблюдается дымка, при ухудшении видимости до 1 км и менее - туман. В сухую погоду видимость может ухудшаться дымом, пылью или мглою.
Явления - указаны атмосферные явления, наблюдавшиеся в срок или в последний час перед сроком; фигурными скобками обозначены явления, наблюдавшиеся между сроками (за 1-3 часа до срока); квадратными скобками обозначены град или гололедные отложения с указанием их диаметра в мм.
Облачность - указаны через наклонную черту общая и нижняя облачность в баллах и высота нижней границы облаков в метрах; квадратными скобками обозначены формы облаков: Ci - перистые, Cs - перисто-слоистые, Cc - перисто-кучевые, Ac - высококучевые, As - высокослоистые, Sc - слоисто-кучевые, Ns - слоисто-дождевые, Cu - кучевые, Cb - кучево-дождевые. Подробнее классификацию облаков см. в Атласе облаков (PDF).
T - Температура воздуха - температура, измеренная на высоте 2 м над землей.
Td - Температура точки росы - температура, при понижении до которой содержащийся в воздухе водяной пар достигнет насыщения.
f - Относительная влажность воздуха - влажноcть воздуха, измеренная на высоте 2 м над землей.
Te - Эффективная температура - температура, которую ощущает одетый по сезону человек в тени. Характеристика душности погоды. При расчете учитывается влияние влажности воздуха и скорости ветра на теплоощущения человека.
Tes - Эффективная температура на солнце - температура, которую ощущает человек, с поправкой на солнечный нагрев. Характеристика знойности погоды. Зависит от высоты солнца над горизонтом, облачности и скорости ветра. Ночью, в пасмурную погоду, а также при ветре 12 м/с и более поправка равна нулю.
P - Атмосферное давление - приведенное к уровню моря атмосферное давление.
Po - Атмосферное давление - измеренное на уровне метеостанции атмосферное давление.
Tmin - Минимальная температура - минимум температуры воздуха на высоте 2 м над землей.
Tmax - Максимальная температура - максимум температуры воздуха на высоте 2 м над землей.
R - Количество осадков - Количество выпавших осадков за период времени, мм. При наведении курсора мыши на число - период времени, за который выпало указанное количество осадков.
R24 - Количество осадков - Количество выпавших осадков за 24 часа, мм.
S - Снежный покров - Высота снежного покрова, см. При наведении курсора мыши на число - состояние снежного покрова и степень покрытия местности в баллах.